[[{"header":{"parameterUnit":"m.s-1","parameterCategory":2,"la1":30.2991,"la2":30.254,"lo1":-89.0895,"lo2":-89.0444,"dy":0.0017,"dx":0.0017,"nx":28,"ny":28,"refTime":"2024-10-21T21:00:00:Z","depth":"0","parameterNumber":2,"parameterNumberName":"U-component_of_CURRENTS"},"data":[0,0,0,0,0,0,0,0,0,0,0,0,0,0,0,0,0,0,0,0,0,0,0,0,0,0,0,0,0,0,0,0,0,0,0,0,0,0,0,0,0,0,0,0,0,0,0,0,0,0,0,0,0,0,0,0,0,0,0.1996,0.1997,0,0.2038,0.2038,0.2038,0.2041,0.2041,0.2041,0.2041,0.2011,0.2011,0.201,0,0,0,0,0,0,0,0,0,0,0,0,0,0.191,0.1912,0.1996,0.1997,0.1997,0.2038,0.2038,0.2038,0.2041,0.2041,0.2041,0.2041,0.2011,0.2011,0.201,0,0,0,0,0,0,0,0,0,0,0,0,0,0.1947,0.1912,0.1996,0.2006,0.2007,0.2038,0.2038,0.2039,0.2041,0.2041,0.2041,0.204,0.2012,0.2011,0.201,0.2011,0,0,0.2007,0.2007,0,0,0,0,0,0,0,0,0.1945,0.195,0.2003,0.2005,0.2007,0.2036,0.1997,0.2027,0.2042,0.2026,0.2041,0.204,0.2015,0.2014,0.202,0.201,0.2009,0.2007,0.2007,0.2006,0.2006,0,0,0,0,0,0,0,0.1942,0.1948,0.201,0.2004,0.2006,0.2006,0.201,0.2003,0.2018,0.2027,0.2028,0.2037,0.2015,0.2021,0.2019,0.2008,0.2007,0.2006,0.2006,0.2005,0.2028,0.2029,0,0,0,0,0,0,0.1944,0.1946,0.2008,0.2011,0.1977,0.2008,0.2013,0.2025,0.202,0.202,0.2037,0.2037,0.2022,0.202,0.2018,0.2044,0.2006,0.2005,0.2005,0.2027,0.2028,0.2029,0,0,0,0,0,0,0.1942,0.1949,0.2007,0.1981,0.1989,0.201,0.2023,0.2026,0.2035,0.2029,0.2027,0.2044,0.2022,0.2019,0.2023,0.2042,0.2005,0.2004,0.2025,0.2027,0.2029,0.208,0,0,0,0,0,0,0.1939,0.1948,0.1954,0.1981,0.199,0.2031,0.2024,0.2027,0.2042,0.2042,0.2034,0.2031,0.2021,0.2024,0.2022,0.204,0.2004,0.2024,0.2026,0.2028,0.2077,0.2083,0.2089,0,0,0,0,0,0.1936,0.1947,0.1954,0.1962,0.2,0.2032,0.2036,0.2047,0.2043,0.2052,0.2049,0.2031,0.2036,0.2024,0.2021,0.2039,0.2023,0.2025,0.2028,0.2074,0.2082,0.2089,0,0,0,0,0,0,0.1908,0.195,0.1958,0.198,0.2007,0.2033,0.2044,0.2051,0.2057,0.2054,0.2042,0.2039,0.2053,0.2039,0.2026,0.2053,0.2028,0.203,0.2064,0.2071,0.2077,0.2079,0.2003,0,0,0,0,0,0.1907,0.1929,0.1966,0.1983,0.1998,0.2021,0.2033,0.2045,0.2057,0.206,0.2057,0.2055,0.2062,0.2059,0.2061,0.2069,0.2077,0.2081,0.2087,0.2092,0.2093,0.2115,0.2123,0.2037,0.2037,0.2037,0,0,0.19,0.1927,0.1938,0.1979,0.1999,0.2027,0.2027,0.2053,0.2074,0.2054,0.2074,0.2075,0.207,0.2088,0.2092,0.2076,0.2128,0.2095,0.2099,0.2098,0.2118,0.2126,0.2134,0.2039,0.2039,0.2038,0,0,0.1903,0.1924,0.1946,0.1973,0.2011,0.203,0.2039,0.2072,0.2084,0.2105,0.2103,0.2117,0.2117,0.2127,0.2129,0.2166,0.2161,0.2166,0.2193,0.2214,0.2222,0.2228,0.228,0.2291,0.2165,0.2165,0.2165,0,0.1889,0.1927,0.1955,0.1985,0.2009,0.2033,0.2061,0.2082,0.211,0.2124,0.2115,0.2143,0.2138,0.2168,0.2185,0.2179,0.2199,0.2166,0.2222,0.2228,0.2234,0.2286,0.2296,0.2168,0.2168,0.2167,0.2167,0,0.1915,0.1943,0.1959,0.2008,0.2035,0.2063,0.2102,0.2126,0.2139,0.2159,0.2192,0.2195,0.2212,0.2218,0.2211,0.2253,0.226,0.2231,0.2204,0.2245,0.2298,0.2308,0.2172,0.2171,0.217,0.2169,0,0,0.1885,0.1961,0.1966,0.199,0.205,0.2072,0.2118,0.2164,0.2186,0.2214,0.2248,0.227,0.2274,0.2278,0.2278,0.2295,0.2363,0.2281,0.2281,0.2333,0.2439,0.2533,0.2553,0.2341,0.2342,0.2343,0.2472,0,0.1893,0.195,0.1989,0.2034,0.2065,0.2107,0.2143,0.2186,0.2217,0.2255,0.2279,0.2305,0.2297,0.2306,0.2329,0.2355,0.2387,0.2332,0.239,0.2393,0.247,0.2567,0.2581,0.2704,0.2482,0.2484,0.2485,0,0.1902,0.1943,0.1991,0.205,0.2066,0.2091,0.2149,0.2185,0.2249,0.2274,0.2316,0.2338,0.2396,0.2363,0.2445,0.2412,0.2433,0.2446,0.245,0.2523,0.2505,0.262,0.2731,0.2635,0.2501,0.25,0.2498,0,0.1869,0.1938,0.1974,0.1997,0.2069,0.2089,0.2122,0.2185,0.2231,0.2287,0.234,0.2385,0.2439,0.2461,0.2534,0.2482,0.2629,0.2554,0.2662,0.267,0.2686,0.2694,0.2709,0.2601,0.26,0.26,0.26,0,0.1863,0.1888,0.1955,0.1974,0.2009,0.2061,0.2105,0.2143,0.2222,0.2282,0.2345,0.2422,0.2464,0.2565,0.2575,0.2703,0.2674,0.2703,0.2718,0.2711,0.2718,0.2637,0.2569,0.2605,0.2604,0.2603,0.2602,0,0.1821,0.187,0.1908,0.1976,0.1995,0.2014,0.2105,0.213,0.2222,0.2311,0.2341,0.2483,0.262,0.2702,0.2773,0.2795,0.2806,0.2902,0.2922,0.2937,0.292,0.2856,0.2797,0.2687,0.3027,0.303,0.3033,0,0.1805,0.1822,0.1894,0.1909,0.1935,0.1985,0.2009,0.2106,0.2149,0.2351,0.2387,0.2583,0.2702,0.2918,0.3005,0.3105,0.2939,0.3157,0.3048,0.2965,0.2901,0.2724,0.2618,0.3097,0.31,0.3103,0.3105,0,0.1761,0.1785,0.1811,0.1859,0.1882,0.1923,0.1975,0.2027,0.2148,0.2256,0.2404,0.2529,0.2822,0.2964,0.3171,0.3228,0.3027,0.3212,0.3101,0.2962,0.2792,0.2678,0.2979,0.3127,0.3125,0.3123,0.3122,0.3121,0.1708,0.1718,0.1755,0.1793,0.1816,0.1837,0.1846,0.192,0.2009,0.215,0.2336,0.2517,0.2861,0.3171,0.3202,0.3331,0.3177,0.3258,0.3193,0.3025,0.2893,0.328,0.3454,0.3454,0.3454,0.3454,0.3453,0,0.1653,0.1669,0.169,0.1716,0.1707,0.1755,0.1794,0.1794,0.1851,0.2054,0.2193,0.2585,0.2855,0.3104,0.3389,0.3306,0.3104,0.323,0.2945,0.2838,0.3192,0.3172,0.3322,0.3322,0.3322,0.3322,0.3322,0.3323,0.1622,0.1626,0.1648,0.1611,0.1616,0.1576,0.1582,0.1593,0.1706,0.1908,0.2124,0.2354,0.2816,0.3246,0.3334,0.3266,0.2903,0.2879,0.2708,0.2949,0.2943,0.2937,0.29,0.2991,0.2991,0.2271,0.2266,0.2262]},{"header":{"parameterUnit":"m.s-1","parameterCategory":2,"la1":30.2991,"la2":30.254,"lo1":-89.0895,"lo2":-89.0444,"dy":0.0017,"dx":0.0017,"nx":28,"ny":28,"refTime":"2024-10-21T21:00:00:Z","depth":"0","parameterNumber":3,"parameterNumberName":"V-component_of_CURRENTS"},"data":[0,0,0,0,0,0,0,0,0,0,0,0,0,0,0,0,0,0,0,0,0,0,0,0,0,0,0,0,0,0,0,0,0,0,0,0,0,0,0,0,0,0,0,0,0,0,0,0,0,0,0,0,0,0,0,0,0,0,-0.039,-0.039,0,-0.0433,-0.0433,-0.0434,-0.0465,-0.0465,-0.0465,-0.0465,-0.0494,-0.0494,-0.0495,0,0,0,0,0,0,0,0,0,0,0,0,0,-0.0381,-0.0381,-0.039,-0.039,-0.0391,-0.0433,-0.0434,-0.0434,-0.0465,-0.0465,-0.0465,-0.0465,-0.0494,-0.0494,-0.0495,0,0,0,0,0,0,0,0,0,0,0,0,0,-0.0401,-0.0381,-0.039,-0.041,-0.0413,-0.0433,-0.0434,-0.0434,-0.0465,-0.0465,-0.0465,-0.0465,-0.0493,-0.0494,-0.0495,-0.0496,0,0,-0.0498,-0.0498,0,0,0,0,0,0,0,0,-0.04,-0.0402,-0.0407,-0.0409,-0.0412,-0.0443,-0.0441,-0.0454,-0.0464,-0.0446,-0.0465,-0.0465,-0.0475,-0.0477,-0.0486,-0.0497,-0.0499,-0.0498,-0.0499,-0.0499,-0.0499,0,0,0,0,0,0,0,-0.0399,-0.04,-0.0408,-0.0407,-0.041,-0.0433,-0.0436,-0.0444,-0.0459,-0.0447,-0.045,-0.0453,-0.0476,-0.0485,-0.0487,-0.0499,-0.0498,-0.0499,-0.05,-0.05,-0.0538,-0.0538,0,0,0,0,0,0,-0.0389,-0.0399,-0.0407,-0.0409,-0.0405,-0.0433,-0.0436,-0.0433,-0.0459,-0.0463,-0.0453,-0.0454,-0.0484,-0.0486,-0.0488,-0.0508,-0.0499,-0.05,-0.0501,-0.0537,-0.0538,-0.0538,0,0,0,0,0,0,-0.0388,-0.0389,-0.0405,-0.0405,-0.0408,-0.0433,-0.0429,-0.0434,-0.0443,-0.0463,-0.0467,-0.0456,-0.0484,-0.0487,-0.0497,-0.0508,-0.05,-0.0501,-0.0537,-0.0538,-0.0538,-0.0536,0,0,0,0,0,0,-0.0388,-0.0388,-0.0383,-0.0404,-0.0408,-0.0411,-0.0429,-0.0435,-0.0444,-0.0447,-0.0467,-0.0471,-0.0484,-0.0496,-0.0498,-0.051,-0.0502,-0.0536,-0.0537,-0.0538,-0.0535,-0.0537,-0.0537,0,0,0,0,0,-0.0387,-0.0373,-0.0382,-0.0384,-0.04,-0.0411,-0.0415,-0.0435,-0.0444,-0.0444,-0.0463,-0.047,-0.0503,-0.0496,-0.0499,-0.0511,-0.0536,-0.0537,-0.0538,-0.0535,-0.0536,-0.0537,0,0,0,0,0,0,-0.036,-0.0375,-0.0386,-0.0376,-0.0392,-0.0416,-0.0415,-0.0431,-0.0447,-0.0448,-0.047,-0.0474,-0.0492,-0.0498,-0.0491,-0.0526,-0.0523,-0.0524,-0.052,-0.0521,-0.0522,-0.0521,-0.0503,0,0,0,0,0,-0.0353,-0.035,-0.037,-0.0362,-0.0367,-0.0392,-0.0399,-0.0413,-0.043,-0.0437,-0.0455,-0.0475,-0.0499,-0.0506,-0.0523,-0.0534,-0.0547,-0.0545,-0.0546,-0.0547,-0.0549,-0.0593,-0.0598,-0.0542,-0.0542,-0.0542,0,0,-0.034,-0.0348,-0.0346,-0.0357,-0.037,-0.0375,-0.0397,-0.0402,-0.0413,-0.0436,-0.0451,-0.0476,-0.0502,-0.0523,-0.0531,-0.0528,-0.0566,-0.0548,-0.0549,-0.055,-0.0595,-0.06,-0.0605,-0.0542,-0.0542,-0.0542,0,0,-0.0312,-0.0319,-0.0309,-0.0322,-0.0338,-0.0356,-0.0356,-0.038,-0.0397,-0.0413,-0.0443,-0.0474,-0.0494,-0.0528,-0.0545,-0.0559,-0.0571,-0.0563,-0.0565,-0.0608,-0.0613,-0.0618,-0.0622,-0.0627,-0.0562,-0.0562,-0.0562,0,-0.0295,-0.0288,-0.0308,-0.0306,-0.0314,-0.0346,-0.0342,-0.0364,-0.0391,-0.0406,-0.0413,-0.0477,-0.0501,-0.0546,-0.0558,-0.0563,-0.0574,-0.0558,-0.0609,-0.0614,-0.0619,-0.0623,-0.0628,-0.0562,-0.0562,-0.0562,-0.0562,0,-0.0267,-0.0264,-0.0257,-0.0269,-0.0281,-0.028,-0.0314,-0.0329,-0.0353,-0.0382,-0.0426,-0.0471,-0.0509,-0.053,-0.055,-0.06,-0.0592,-0.0607,-0.0606,-0.0625,-0.0627,-0.0633,-0.0562,-0.0562,-0.0562,-0.0562,0,0,-0.0217,-0.0234,-0.0232,-0.0232,-0.0262,-0.0264,-0.0286,-0.0316,-0.032,-0.0375,-0.0392,-0.047,-0.05,-0.0523,-0.0562,-0.0608,-0.0653,-0.0621,-0.0624,-0.0623,-0.0721,-0.0652,-0.0651,-0.068,-0.0682,-0.0683,-0.07,0,-0.0188,-0.0175,-0.0197,-0.0188,-0.0185,-0.0224,-0.0236,-0.027,-0.0301,-0.0323,-0.0404,-0.0428,-0.0496,-0.0505,-0.0574,-0.0622,-0.0672,-0.0645,-0.0704,-0.0705,-0.0641,-0.0658,-0.0579,-0.0583,-0.0706,-0.0707,-0.0708,0,-0.0153,-0.015,-0.0135,-0.0145,-0.0146,-0.0148,-0.0168,-0.0183,-0.0235,-0.0257,-0.0323,-0.0369,-0.045,-0.0495,-0.0622,-0.0599,-0.0666,-0.0715,-0.0716,-0.0659,-0.0648,-0.0589,-0.0589,-0.0771,-0.0717,-0.0716,-0.0716,0,-0.0106,-0.0106,-0.0092,-0.0096,-0.0112,-0.0113,-0.0124,-0.0162,-0.0146,-0.021,-0.0183,-0.0319,-0.0327,-0.047,-0.0566,-0.06,-0.0679,-0.0734,-0.074,-0.0735,-0.0682,-0.0668,-0.0864,-0.0837,-0.0837,-0.0837,-0.0837,0,-0.0068,-0.0053,-0.0064,-0.0053,-0.0023,-0.0061,-0.0028,-0.0059,-0.0063,0.0001,-0.0137,-0.0087,-0.0321,-0.0382,-0.0531,-0.0623,-0.0653,-0.0739,-0.0742,-0.0674,-0.0661,-0.0827,-0.0938,-0.0837,-0.0837,-0.0837,-0.0837,0,-0.0016,-0.0028,-0.0001,-0.0004,0.0003,0.0025,0.0062,0.0095,0.008,0.0167,0.0165,0.0093,0.0027,-0.0179,-0.0362,-0.0516,-0.0725,-0.0677,-0.0558,-0.0548,-0.0748,-0.0859,-0.1027,-0.1101,-0.0714,-0.0713,-0.0712,0,0.0011,0.0031,0.0055,0.0089,0.0094,0.013,0.0172,0.0163,0.024,0.0323,0.0402,0.0353,0.039,0.0137,-0.0152,-0.0399,-0.0613,-0.052,-0.0594,-0.0747,-0.0876,-0.0964,-0.1023,-0.0519,-0.0516,-0.0514,-0.0512,0,0.0075,0.0085,0.0111,0.0188,0.0237,0.0308,0.0388,0.0488,0.0541,0.0644,0.0812,0.0845,0.0632,0.0429,0.0062,-0.013,-0.0626,-0.048,-0.0691,-0.0781,-0.084,-0.0912,-0.0502,-0.0492,-0.0494,-0.0496,-0.0497,-0.0497,0.0137,0.0177,0.0228,0.0306,0.0372,0.0518,0.0643,0.0765,0.0946,0.1165,0.1163,0.1283,0.0932,0.0463,0.0144,-0.0392,-0.0458,-0.0579,-0.071,-0.0791,-0.0853,-0.0371,-0.0334,-0.0335,-0.0336,-0.0337,-0.0338,0,0.0238,0.0283,0.0351,0.0467,0.0588,0.06,0.0818,0.0982,0.1262,0.142,0.1579,0.1555,0.1104,0.0575,-0.014,-0.0558,-0.075,-0.0806,-0.0958,-0.1017,-0.0625,-0.0606,-0.0562,-0.0562,-0.0561,-0.0561,-0.0561,-0.0561,0.0298,0.0395,0.0432,0.0651,0.075,0.0976,0.1139,0.1361,0.1538,0.1805,0.1918,0.1966,0.1611,0.0282,-0.0654,-0.0873,-0.1218,-0.125,-0.1459,-0.1237,-0.1228,-0.1219,-0.1231,-0.1318,-0.1319,-0.1774,-0.1779,-0.1782]}],[{"header":{"parameterUnit":"m.s-1","parameterCategory":2,"la1":30.2991,"la2":30.254,"lo1":-89.0895,"lo2":-89.0444,"dy":0.0017,"dx":0.0017,"nx":28,"ny":28,"refTime":"2024-10-21T21:00:00:Z","depth":"2","parameterNumber":2,"parameterNumberName":"U-component_of_CURRENTS"},"data":[0,0,0,0,0,0,0,0,0,0,0,0,0,0,0,0,0,0,0,0,0,0,0,0,0,0,0,0,0,0,0,0,0,0,0,0,0,0,0,0,0,0,0,0,0,0,0,0,0,0,0,0,0,0,0,0,0,0,0.186,0.1861,0,0.1888,0.1889,0.1889,0.1903,0.1903,0.1903,0.1903,0.1904,0.1904,0.1904,0,0,0,0,0,0,0,0,0,0,0,0,0,0.1799,0.18,0.186,0.1861,0.1861,0.1888,0.1889,0.1889,0.1903,0.1903,0.1903,0.1903,0.1904,0.1904,0.1904,0,0,0,0,0,0,0,0,0,0,0,0,0,0.1825,0.18,0.186,0.1872,0.1874,0.1888,0.1889,0.1889,0.1903,0.1903,0.1903,0.1903,0.1904,0.1904,0.1904,0.19,0,0,0.1903,0.1903,0,0,0,0,0,0,0,0,0.1823,0.1827,0.187,0.1872,0.1873,0.1893,0.1867,0.1892,0.1903,0.1891,0.1903,0.1903,0.1898,0.1899,0.1903,0.19,0.19,0.1903,0.1903,0.1903,0.1903,0,0,0,0,0,0,0,0.1822,0.1826,0.187,0.1871,0.1872,0.1869,0.1873,0.1872,0.1892,0.1892,0.1893,0.1898,0.1899,0.1903,0.1903,0.19,0.1903,0.1903,0.1903,0.1903,0.1944,0.1945,0,0,0,0,0,0,0.1821,0.1824,0.1869,0.1871,0.1849,0.1871,0.1875,0.1886,0.1893,0.1894,0.1898,0.1898,0.1903,0.1903,0.1903,0.1955,0.1903,0.1903,0.1903,0.1943,0.1945,0.1946,0,0,0,0,0,0,0.182,0.1825,0.1868,0.1849,0.1854,0.1872,0.1884,0.1886,0.1899,0.1898,0.1899,0.1909,0.1903,0.1903,0.1917,0.1953,0.1903,0.1903,0.1942,0.1944,0.1945,0.2024,0,0,0,0,0,0,0.1818,0.1825,0.1833,0.1849,0.1855,0.1892,0.1884,0.1887,0.1902,0.1903,0.1908,0.1907,0.1903,0.1917,0.1917,0.1952,0.1903,0.194,0.1943,0.1945,0.202,0.2028,0.2035,0,0,0,0,0,0.1816,0.1827,0.1833,0.1839,0.1866,0.1893,0.1897,0.1908,0.1902,0.1917,0.1919,0.1908,0.1931,0.1918,0.1917,0.1954,0.1939,0.1942,0.1945,0.2017,0.2027,0.2035,0,0,0,0,0,0,0.1798,0.183,0.1837,0.1856,0.188,0.1896,0.1907,0.1913,0.1925,0.1925,0.1918,0.1919,0.1948,0.1934,0.192,0.1971,0.1935,0.1938,0.199,0.1999,0.2007,0.2028,0.1903,0,0,0,0,0,0.18,0.1823,0.1848,0.1865,0.1876,0.1892,0.1903,0.1915,0.1927,0.1933,0.1939,0.1943,0.1956,0.1964,0.197,0.1992,0.2,0.2015,0.2023,0.203,0.2046,0.2083,0.2096,0.1954,0.1954,0.1954,0,0,0.1796,0.1819,0.183,0.1864,0.188,0.1907,0.19,0.1924,0.1952,0.1929,0.1965,0.1969,0.1967,0.2001,0.2013,0.1995,0.2076,0.2033,0.2039,0.2052,0.2087,0.2101,0.2114,0.1956,0.1956,0.1956,0,0,0.1807,0.1823,0.1848,0.1871,0.1905,0.192,0.193,0.1957,0.1975,0.2003,0.2004,0.2035,0.2038,0.2066,0.2072,0.2123,0.2115,0.2118,0.2177,0.2213,0.2225,0.2236,0.2277,0.2291,0.2123,0.2123,0.2123,0,0.1801,0.1836,0.1858,0.1888,0.191,0.1928,0.1958,0.1981,0.2013,0.204,0.2023,0.2074,0.2076,0.2135,0.2159,0.2145,0.2158,0.2144,0.2225,0.2236,0.2246,0.2284,0.2299,0.2127,0.2127,0.2126,0.2126,0,0.1829,0.186,0.1876,0.1925,0.1953,0.1981,0.2017,0.2053,0.2069,0.2097,0.2156,0.2165,0.2199,0.2209,0.22,0.2279,0.2264,0.2231,0.2205,0.2265,0.2302,0.2315,0.2133,0.2131,0.213,0.2129,0,0,0.1804,0.1881,0.1886,0.1916,0.1974,0.1997,0.2057,0.2118,0.216,0.2197,0.2254,0.2299,0.2312,0.2322,0.2324,0.2362,0.245,0.2332,0.2332,0.238,0.2537,0.2484,0.2493,0.2427,0.243,0.2432,0.2539,0,0.1819,0.1879,0.1917,0.1974,0.2007,0.2053,0.2105,0.2166,0.2211,0.2271,0.2313,0.2356,0.2351,0.2368,0.2415,0.2438,0.2488,0.2425,0.2466,0.2468,0.2418,0.2507,0.231,0.2385,0.2552,0.2555,0.2556,0,0.1831,0.1873,0.1929,0.2007,0.2024,0.2059,0.2147,0.2197,0.2294,0.233,0.24,0.2424,0.2512,0.2471,0.2578,0.2535,0.2554,0.2566,0.2569,0.2502,0.2439,0.2349,0.2403,0.2578,0.2577,0.2575,0.2574,0,0.1803,0.188,0.1924,0.1949,0.2036,0.2072,0.2119,0.2216,0.2279,0.2368,0.2431,0.2508,0.2571,0.2601,0.2672,0.2616,0.2781,0.2694,0.2671,0.2667,0.25,0.2477,0.277,0.277,0.277,0.2769,0.2769,0,0.1803,0.1834,0.191,0.1932,0.1985,0.2051,0.2123,0.2185,0.2295,0.2383,0.2457,0.2542,0.2609,0.2715,0.2718,0.2774,0.2828,0.2714,0.2701,0.2522,0.2501,0.2656,0.2641,0.2774,0.2773,0.2772,0.2771,0,0.1761,0.1816,0.1863,0.1946,0.1975,0.2005,0.2122,0.217,0.2292,0.2413,0.2449,0.2608,0.2703,0.2789,0.2866,0.2853,0.2883,0.2889,0.2688,0.2649,0.2721,0.2709,0.2825,0.2824,0.2824,0.2823,0.2823,0,0.1744,0.1767,0.185,0.1872,0.1905,0.1971,0.2014,0.2142,0.221,0.2448,0.2497,0.266,0.2727,0.2859,0.2853,0.2867,0.2906,0.2708,0.2547,0.2755,0.2732,0.2721,0.271,0.2365,0.236,0.2357,0.2354,0,0.1699,0.1727,0.1762,0.1811,0.185,0.1922,0.2004,0.2061,0.2227,0.2327,0.2472,0.2548,0.2696,0.2625,0.2703,0.267,0.2673,0.2634,0.2937,0.2375,0.2328,0.2302,0.2306,0.2324,0.2327,0.2329,0.2331,0.2332,0.165,0.1654,0.1697,0.1739,0.1789,0.1856,0.1899,0.1985,0.2075,0.2212,0.2334,0.2382,0.2463,0.2414,0.238,0.2364,0.2495,0.2382,0.239,0.2402,0.2323,0.2277,0.225,0.2252,0.2254,0.2256,0.2258,0,0.1604,0.1607,0.1624,0.1686,0.1717,0.1791,0.1877,0.1889,0.1938,0.2042,0.2111,0.1983,0.1973,0.2048,0.1978,0.1995,0.1943,0.191,0.1825,0.1858,0.1888,0.1778,0.1563,0.156,0.1558,0.1555,0,0,0.158,0.1575,0.1581,0.1602,0.1653,0.1722,0.1763,0.1737,0.1777,0.1737,0.1743,0.188,0.1994,0.1743,0.1733,0.1639,0.1722,0.1574,0.214,0.2074,0.21,0.2181,0.2054,0,0,0,0,0]},{"header":{"parameterUnit":"m.s-1","parameterCategory":2,"la1":30.2991,"la2":30.254,"lo1":-89.0895,"lo2":-89.0444,"dy":0.0017,"dx":0.0017,"nx":28,"ny":28,"refTime":"2024-10-21T21:00:00:Z","depth":"2","parameterNumber":3,"parameterNumberName":"V-component_of_CURRENTS"},"data":[0,0,0,0,0,0,0,0,0,0,0,0,0,0,0,0,0,0,0,0,0,0,0,0,0,0,0,0,0,0,0,0,0,0,0,0,0,0,0,0,0,0,0,0,0,0,0,0,0,0,0,0,0,0,0,0,0,0,-0.0064,-0.0065,0,-0.0103,-0.0103,-0.0104,-0.0146,-0.0146,-0.0147,-0.0147,-0.0223,-0.0225,-0.0226,0,0,0,0,0,0,0,0,0,0,0,0,0,-0.0063,-0.0063,-0.0064,-0.0065,-0.0065,-0.0103,-0.0103,-0.0104,-0.0146,-0.0146,-0.0147,-0.0147,-0.0223,-0.0225,-0.0227,0,0,0,0,0,0,0,0,0,0,0,0,0,-0.0081,-0.0063,-0.0064,-0.0089,-0.0091,-0.0103,-0.0103,-0.0104,-0.0146,-0.0146,-0.0147,-0.0147,-0.0222,-0.0224,-0.0227,-0.0229,0,0,-0.0234,-0.0235,0,0,0,0,0,0,0,0,-0.0079,-0.0081,-0.0085,-0.0087,-0.009,-0.0118,-0.0131,-0.0147,-0.0145,-0.0127,-0.0147,-0.0148,-0.019,-0.0195,-0.0203,-0.0233,-0.0236,-0.0235,-0.0236,-0.0237,-0.0238,0,0,0,0,0,0,0,-0.0078,-0.008,-0.0082,-0.0085,-0.0088,-0.011,-0.0113,-0.0134,-0.0157,-0.0129,-0.0131,-0.0132,-0.0192,-0.0201,-0.0205,-0.0237,-0.0235,-0.0237,-0.0238,-0.0239,-0.0297,-0.0297,0,0,0,0,0,0,-0.0067,-0.0078,-0.008,-0.0083,-0.0084,-0.0109,-0.0113,-0.011,-0.0156,-0.0162,-0.0132,-0.0134,-0.0196,-0.0202,-0.0208,-0.0234,-0.0237,-0.0239,-0.0241,-0.0297,-0.0297,-0.0297,0,0,0,0,0,0,-0.0067,-0.0066,-0.0079,-0.008,-0.0083,-0.0108,-0.0105,-0.0111,-0.0123,-0.0157,-0.0165,-0.0138,-0.0197,-0.0205,-0.0228,-0.0237,-0.0241,-0.0243,-0.0297,-0.0297,-0.0297,-0.0273,0,0,0,0,0,0,-0.0066,-0.0066,-0.0062,-0.0079,-0.0082,-0.0085,-0.0105,-0.0111,-0.0121,-0.0125,-0.0165,-0.0173,-0.0198,-0.0224,-0.023,-0.024,-0.0245,-0.0297,-0.0297,-0.0297,-0.0274,-0.0273,-0.0271,0,0,0,0,0,-0.0066,-0.0052,-0.0061,-0.0062,-0.0075,-0.0084,-0.0088,-0.011,-0.0121,-0.0124,-0.0151,-0.0172,-0.023,-0.0226,-0.0233,-0.0244,-0.0297,-0.0297,-0.0297,-0.0275,-0.0273,-0.0271,0,0,0,0,0,0,-0.0045,-0.0055,-0.0066,-0.0055,-0.007,-0.0091,-0.0092,-0.0107,-0.013,-0.0134,-0.017,-0.0179,-0.0204,-0.0223,-0.0218,-0.0261,-0.0268,-0.0269,-0.0248,-0.0247,-0.0246,-0.0254,-0.0247,0,0,0,0,0,-0.0039,-0.0036,-0.005,-0.0044,-0.0047,-0.007,-0.0077,-0.0091,-0.0111,-0.0122,-0.0153,-0.0183,-0.0209,-0.0227,-0.0251,-0.0271,-0.0294,-0.0284,-0.0282,-0.0281,-0.0293,-0.0333,-0.0336,-0.0297,-0.0297,-0.0297,0,0,-0.0029,-0.0035,-0.0033,-0.0041,-0.0053,-0.0049,-0.0076,-0.0081,-0.0085,-0.0126,-0.0144,-0.0178,-0.0212,-0.0237,-0.0251,-0.0256,-0.0299,-0.0281,-0.028,-0.0293,-0.0333,-0.0337,-0.034,-0.0298,-0.0298,-0.0298,0,0,-0.0007,-0.0013,-0.0003,-0.001,-0.0022,-0.0035,-0.0034,-0.0057,-0.0074,-0.0091,-0.0126,-0.0169,-0.0198,-0.0239,-0.0258,-0.0264,-0.0288,-0.0265,-0.0271,-0.0309,-0.0312,-0.0316,-0.0329,-0.0334,-0.0268,-0.0268,-0.0268,0,0.0004,0.0019,-0.0002,0.0008,0.0009,-0.0024,-0.001,-0.0029,-0.0061,-0.0079,-0.0092,-0.0162,-0.0203,-0.0241,-0.0257,-0.0264,-0.0277,-0.0273,-0.0308,-0.0312,-0.0316,-0.0329,-0.0335,-0.0267,-0.0267,-0.0267,-0.0267,0,0.0039,0.0046,0.0054,0.0055,0.005,0.0057,0.0034,0.0018,-0.0007,-0.0039,-0.0083,-0.0141,-0.019,-0.021,-0.0243,-0.0293,-0.0288,-0.0298,-0.0311,-0.0319,-0.0331,-0.0338,-0.0265,-0.0266,-0.0266,-0.0266,0,0,0.0076,0.0079,0.0082,0.0091,0.0079,0.0082,0.0073,0.0052,0.0047,-0.001,-0.003,-0.0114,-0.0164,-0.0192,-0.0239,-0.0289,-0.034,-0.0312,-0.0315,-0.0325,-0.0403,-0.0366,-0.037,-0.0352,-0.0353,-0.0355,-0.0393,0,0.011,0.0144,0.0131,0.0157,0.0175,0.0144,0.0141,0.0111,0.0077,0.0046,-0.0039,-0.0078,-0.0148,-0.0175,-0.0241,-0.0311,-0.036,-0.0328,-0.0396,-0.0398,-0.0365,-0.0378,-0.0368,-0.0398,-0.0399,-0.04,-0.0401,0,0.0151,0.0169,0.0204,0.0215,0.022,0.0223,0.0215,0.0207,0.0146,0.0119,0.0047,-0.0017,-0.0116,-0.0162,-0.0299,-0.0271,-0.0348,-0.0402,-0.0404,-0.0388,-0.0375,-0.0396,-0.0411,-0.0413,-0.0412,-0.0411,-0.041,0,0.0194,0.0219,0.0251,0.0256,0.0261,0.0263,0.0257,0.0219,0.023,0.0153,0.0155,0.0026,-0.0011,-0.0144,-0.0273,-0.0293,-0.0395,-0.0429,-0.0463,-0.0459,-0.0476,-0.0472,-0.0529,-0.0529,-0.0528,-0.0528,-0.0528,0,0.0241,0.0267,0.0273,0.0292,0.0328,0.0306,0.0335,0.0308,0.0294,0.0319,0.0189,0.0194,-0.0009,-0.0092,-0.024,-0.0355,-0.0369,-0.0471,-0.0475,-0.0463,-0.0457,-0.0495,-0.049,-0.053,-0.0529,-0.0529,-0.0529,0,0.0286,0.0289,0.0328,0.0342,0.0349,0.0371,0.0405,0.0432,0.0405,0.0438,0.0419,0.0323,0.0208,0.0033,-0.0155,-0.0273,-0.0412,-0.0447,-0.0405,-0.0405,-0.0465,-0.0459,-0.0513,-0.0513,-0.0512,-0.0511,-0.0511,0,0.0315,0.0338,0.0372,0.0401,0.0408,0.0445,0.048,0.0479,0.0523,0.0533,0.0562,0.0466,0.04,0.0156,-0.0081,-0.031,-0.0351,-0.0422,-0.0479,-0.0469,-0.0468,-0.0463,-0.0458,-0.0488,-0.0487,-0.0486,-0.0486,0,0.0369,0.0375,0.0407,0.0469,0.0509,0.0577,0.0627,0.0677,0.0696,0.0714,0.073,0.0671,0.0461,0.0222,-0.0056,-0.0215,-0.0395,-0.0417,-0.0427,-0.0479,-0.0445,-0.0443,-0.0439,-0.0481,-0.0482,-0.0482,-0.0482,-0.0483,0.0403,0.0442,0.0482,0.0541,0.06,0.0687,0.0734,0.0799,0.0857,0.0887,0.0853,0.0782,0.0545,0.0169,-0.0078,-0.0332,-0.0346,-0.0453,-0.0456,-0.0459,-0.0435,-0.04,-0.0423,-0.0423,-0.0423,-0.0423,-0.0424,0,0.0449,0.0492,0.0554,0.0628,0.0703,0.0734,0.0824,0.0863,0.0917,0.0966,0.0952,0.0728,0.0477,0.0221,-0.0156,-0.0386,-0.0435,-0.045,-0.0472,-0.0474,-0.0477,-0.0456,-0.0449,-0.045,-0.045,-0.0451,0,0,0.047,0.0543,0.058,0.0699,0.0762,0.0862,0.0908,0.0943,0.0977,0.0989,0.0966,0.0898,0.0575,0.0306,-0.0015,-0.0226,-0.0297,-0.027,-0.0228,-0.022,-0.0219,-0.046,-0.0427,0,0,0,0,0]}],[{"header":{"parameterUnit":"m.s-1","parameterCategory":2,"la1":30.2991,"la2":30.254,"lo1":-89.0895,"lo2":-89.0444,"dy":0.0017,"dx":0.0017,"nx":28,"ny":28,"refTime":"2024-10-21T21:00:00:Z","depth":"4","parameterNumber":2,"parameterNumberName":"U-component_of_CURRENTS"},"data":[0,0,0,0,0,0,0,0,0,0,0,0,0,0,0,0,0,0,0,0,0,0,0,0,0,0,0,0,0,0,0,0,0,0,0,0,0,0,0,0,0,0,0,0,0,0,0,0,0,0,0,0,0,0,0,0,0,0,0.1134,0.1135,0,0.1188,0.1189,0.1189,0.1233,0.1233,0.1234,0.1234,0.1308,0.1309,0.1311,0,0,0,0,0,0,0,0,0,0,0,0,0,0.1061,0.1062,0.1134,0.1135,0.1135,0.1188,0.1189,0.1189,0.1233,0.1233,0.1234,0.1235,0.1308,0.1309,0.1311,0,0,0,0,0,0,0,0,0,0,0,0,0,0.1101,0.1063,0.1134,0.1164,0.1168,0.1188,0.1189,0.1189,0.1233,0.1233,0.1234,0.1235,0.1307,0.1309,0.1311,0.1308,0,0,0.1318,0.1319,0,0,0,0,0,0,0,0,0.1098,0.1103,0.1159,0.1162,0.1166,0.1205,0.119,0.123,0.1232,0.1207,0.1234,0.1235,0.1276,0.128,0.1287,0.1312,0.1315,0.1318,0.1319,0.132,0.1321,0,0,0,0,0,0,0,0.1096,0.1101,0.1154,0.116,0.1164,0.1173,0.1179,0.1198,0.1235,0.1209,0.1213,0.122,0.1278,0.1285,0.1289,0.1316,0.1318,0.132,0.1321,0.1322,0.1417,0.1418,0,0,0,0,0,0,0.1091,0.1099,0.1153,0.1156,0.1135,0.1174,0.1181,0.1191,0.1235,0.1243,0.1219,0.1222,0.1281,0.1286,0.1292,0.1353,0.132,0.1322,0.1324,0.1416,0.1417,0.1418,0,0,0,0,0,0,0.1089,0.1095,0.115,0.1129,0.1137,0.1174,0.1185,0.1192,0.1225,0.1243,0.1251,0.125,0.1281,0.1289,0.1333,0.1354,0.1323,0.1325,0.1414,0.1416,0.1418,0.1436,0,0,0,0,0,0,0.1087,0.1094,0.1112,0.1129,0.1138,0.1178,0.1185,0.1192,0.1228,0.1232,0.1271,0.1277,0.1283,0.133,0.1335,0.1357,0.1327,0.1413,0.1415,0.1417,0.1434,0.1439,0.1442,0,0,0,0,0,0.1084,0.1099,0.1112,0.112,0.1157,0.1179,0.1185,0.1213,0.1228,0.1246,0.1276,0.1277,0.1348,0.1333,0.1339,0.1361,0.1412,0.1414,0.1417,0.1432,0.1438,0.1442,0,0,0,0,0,0,0.1076,0.1105,0.112,0.1144,0.1169,0.1188,0.121,0.1227,0.1263,0.1277,0.1292,0.13,0.1347,0.1354,0.1336,0.1396,0.138,0.1384,0.139,0.1395,0.1399,0.1409,0.1329,0,0,0,0,0,0.1082,0.1104,0.1129,0.1151,0.1166,0.1193,0.1211,0.123,0.1258,0.1276,0.1303,0.1333,0.1357,0.1377,0.14,0.1433,0.1446,0.1452,0.1456,0.1459,0.1473,0.1498,0.1505,0.1427,0.1427,0.1427,0,0,0.1085,0.1105,0.1118,0.1152,0.1175,0.1195,0.1207,0.1241,0.1266,0.1278,0.1329,0.135,0.137,0.1407,0.1429,0.142,0.1492,0.1463,0.1465,0.1477,0.1501,0.1509,0.1515,0.1429,0.1429,0.1429,0,0,0.109,0.1121,0.1138,0.1161,0.12,0.1216,0.1231,0.1267,0.1296,0.1338,0.1355,0.1392,0.1431,0.145,0.1462,0.1504,0.1512,0.1513,0.1542,0.1566,0.1572,0.1578,0.1615,0.1624,0.1515,0.1515,0.1515,0,0.1095,0.1119,0.1147,0.1169,0.1191,0.1226,0.1248,0.1278,0.1326,0.1353,0.1362,0.1432,0.145,0.1492,0.151,0.1513,0.1534,0.1518,0.157,0.1576,0.1582,0.1618,0.1628,0.1516,0.1516,0.1516,0.1516,0,0.1103,0.1134,0.1147,0.1186,0.1213,0.124,0.128,0.132,0.1358,0.1385,0.1448,0.1476,0.152,0.1528,0.1535,0.1586,0.1591,0.157,0.1554,0.1591,0.1627,0.1637,0.1518,0.1517,0.1517,0.1517,0,0,0.1081,0.1141,0.1148,0.1174,0.1227,0.1248,0.1299,0.1349,0.1391,0.144,0.1494,0.1538,0.1566,0.1583,0.1598,0.1622,0.168,0.1621,0.1621,0.1652,0.1751,0.1648,0.1649,0.1668,0.1669,0.167,0.1764,0,0.1081,0.1118,0.1152,0.1196,0.1219,0.1272,0.1315,0.1369,0.1422,0.1485,0.1527,0.1586,0.1582,0.1618,0.1641,0.1677,0.1706,0.1658,0.1717,0.172,0.1618,0.1656,0.1675,0.1771,0.1774,0.1775,0.1776,0,0.107,0.1101,0.1141,0.1208,0.1226,0.1263,0.1344,0.1391,0.148,0.1526,0.1589,0.1629,0.1699,0.1681,0.1758,0.1731,0.1752,0.1766,0.1769,0.1673,0.1633,0.1727,0.1793,0.1792,0.1791,0.179,0.1789,0,0.1028,0.1092,0.1126,0.1148,0.1227,0.127,0.1323,0.1408,0.1462,0.1569,0.1619,0.1692,0.175,0.1783,0.1825,0.1804,0.1897,0.1864,0.1791,0.1785,0.1841,0.1834,0.1912,0.1911,0.1911,0.1911,0.1911,0,0.1001,0.1032,0.1117,0.1136,0.1193,0.126,0.1333,0.14,0.1501,0.1566,0.1648,0.1706,0.1779,0.1837,0.1855,0.1858,0.1923,0.1811,0.18,0.1849,0.1841,0.1849,0.184,0.1914,0.1914,0.1913,0.1912,0,0.0947,0.0999,0.1046,0.1139,0.1175,0.1221,0.134,0.1392,0.1496,0.1588,0.1631,0.1744,0.1819,0.1874,0.1941,0.189,0.1905,0.1886,0.1963,0.1953,0.1776,0.1768,0.1818,0.1816,0.1813,0.1811,0.1809,0,0.0919,0.0938,0.104,0.1075,0.1126,0.1206,0.1264,0.1381,0.1439,0.1596,0.1634,0.175,0.1811,0.1827,0.1887,0.1916,0.1887,0.1884,0.1803,0.1781,0.1766,0.1762,0.1757,0.1805,0.1805,0.1804,0.1803,0,0.0869,0.0915,0.0958,0.1035,0.1103,0.1162,0.1257,0.1287,0.1424,0.1527,0.16,0.1647,0.1727,0.177,0.1804,0.1816,0.1877,0.1857,0.1861,0.1785,0.1765,0.1752,0.1751,0.1795,0.1796,0.1797,0.1797,0,0.0836,0.0857,0.0927,0.0988,0.1066,0.111,0.1157,0.1232,0.1301,0.1467,0.149,0.1612,0.1714,0.1721,0.1755,0.1758,0.1728,0.166,0.1673,0.1684,0.1592,0.1544,0.1507,0,0,0,0,0,0.0796,0.0824,0.0877,0.0942,0.1014,0.1062,0.1156,0.1204,0.1328,0.1346,0.1413,0.1483,0.154,0.1602,0.1578,0.1699,0.1733,0.1664,0.1661,0.1748,0.1757,0.166,0,0,0,0,0,0,0.0771,0.0822,0.0857,0.0897,0.093,0.1003,0.1056,0.1131,0.1141,0.1266,0.1304,0.1399,0.1474,0.1544,0.1554,0.1572,0.1541,0.174,0.1736,0.1742,0.1751,0.1759,0.1663,0,0,0,0,0]},{"header":{"parameterUnit":"m.s-1","parameterCategory":2,"la1":30.2991,"la2":30.254,"lo1":-89.0895,"lo2":-89.0444,"dy":0.0017,"dx":0.0017,"nx":28,"ny":28,"refTime":"2024-10-21T21:00:00:Z","depth":"4","parameterNumber":3,"parameterNumberName":"V-component_of_CURRENTS"},"data":[0,0,0,0,0,0,0,0,0,0,0,0,0,0,0,0,0,0,0,0,0,0,0,0,0,0,0,0,0,0,0,0,0,0,0,0,0,0,0,0,0,0,0,0,0,0,0,0,0,0,0,0,0,0,0,0,0,0,0.01,0.01,0,0.0066,0.0066,0.0065,0.0039,0.0038,0.0038,0.0038,-0.0035,-0.0037,-0.0038,0,0,0,0,0,0,0,0,0,0,0,0,0,0.0111,0.0111,0.01,0.01,0.01,0.0066,0.0066,0.0065,0.0039,0.0038,0.0038,0.0038,-0.0034,-0.0036,-0.0039,0,0,0,0,0,0,0,0,0,0,0,0,0,0.0093,0.0111,0.01,0.0083,0.0082,0.0066,0.0066,0.0065,0.0039,0.0038,0.0038,0.0038,-0.0034,-0.0036,-0.0039,-0.0051,0,0,-0.0047,-0.0048,0,0,0,0,0,0,0,0,0.0094,0.0093,0.0086,0.0085,0.0083,0.0058,0.0043,0.0025,0.0039,0.0054,0.0038,0.0038,-0.0007,-0.0012,-0.0019,-0.0055,-0.0058,-0.0047,-0.0049,-0.005,-0.0051,0,0,0,0,0,0,0,0.0096,0.0094,0.0085,0.0086,0.0084,0.0067,0.0064,0.0039,0.0023,0.0052,0.0051,0.0049,-0.0008,-0.0016,-0.0021,-0.0059,-0.0047,-0.005,-0.0051,-0.0053,-0.0103,-0.0103,0,0,0,0,0,0,0.0105,0.0095,0.0087,0.0085,0.009,0.0067,0.0064,0.0065,0.0024,0.0019,0.0049,0.0048,-0.0011,-0.0018,-0.0023,-0.0018,-0.005,-0.0053,-0.0054,-0.0104,-0.0103,-0.0103,0,0,0,0,0,0,0.0105,0.0104,0.0088,0.009,0.0087,0.0067,0.0068,0.0064,0.0057,0.0023,0.0016,0.0046,-0.0012,-0.002,-0.0041,-0.0022,-0.0054,-0.0057,-0.0104,-0.0103,-0.0103,-0.0022,0,0,0,0,0,0,0.0105,0.0105,0.0108,0.0091,0.0087,0.0086,0.0068,0.0064,0.0057,0.0055,0.0018,0.0011,-0.0012,-0.0036,-0.0043,-0.0026,-0.0059,-0.0104,-0.0104,-0.0103,-0.0025,-0.0019,-0.0014,0,0,0,0,0,0.0106,0.0115,0.0108,0.0107,0.0092,0.0086,0.0083,0.0067,0.0057,0.0058,0.0033,0.0012,-0.0038,-0.0038,-0.0047,-0.003,-0.0104,-0.0104,-0.0103,-0.0028,-0.002,-0.0014,0,0,0,0,0,0,0.012,0.0113,0.0105,0.0111,0.0101,0.0082,0.0083,0.007,0.0051,0.0048,0.0013,0.0005,-0.0006,-0.0034,-0.0033,-0.0045,-0.0074,-0.0075,-0.0014,-0.0007,-0.0002,0.0023,-0.0061,0,0,0,0,0,0.0126,0.0131,0.0118,0.0122,0.012,0.0101,0.0096,0.0085,0.0068,0.0059,0.0034,0.0007,-0.001,-0.0021,-0.0045,-0.0053,-0.0081,-0.0049,-0.0043,-0.0037,-0.0024,-0.0039,-0.0032,-0.0101,-0.0101,-0.0101,0,0,0.0133,0.0129,0.0132,0.0126,0.0117,0.0125,0.0097,0.0094,0.0103,0.0053,0.0053,0.0024,-0.0009,-0.0014,-0.0021,-0.0034,-0.0039,-0.0037,-0.0032,-0.0021,-0.0037,-0.003,-0.0024,-0.01,-0.01,-0.01,0,0,0.0155,0.0146,0.0161,0.0158,0.015,0.0141,0.0142,0.0125,0.012,0.0111,0.0084,0.0071,0.0033,0.0026,0.0015,0.0035,-0.0009,0.002,0.0073,0.0059,0.0065,0.007,0.0022,0.0022,0.0026,0.0026,0.0026,0,0.0164,0.0181,0.0163,0.0177,0.0183,0.0153,0.0172,0.0163,0.0142,0.0145,0.012,0.0088,0.0059,0.007,0.0078,0.0052,0.0021,0.0053,0.0069,0.0073,0.0077,0.0027,0.0026,0.003,0.0029,0.0029,0.0028,0,0.0199,0.0212,0.0221,0.0232,0.0234,0.0244,0.0233,0.0233,0.0216,0.0207,0.0204,0.0167,0.0149,0.014,0.0115,0.0132,0.0092,0.0078,0.0058,0.0089,0.0033,0.0031,0.0035,0.0034,0.0033,0.0032,0,0,0.0218,0.0243,0.0245,0.0264,0.0265,0.0272,0.0289,0.0299,0.0311,0.0288,0.0302,0.0281,0.0254,0.024,0.0208,0.0202,0.0192,0.0156,0.0154,0.0119,0.0134,0.0085,0.0077,0.0182,0.0182,0.0183,0.0076,0,0.0252,0.0296,0.0298,0.0339,0.0361,0.035,0.0371,0.0374,0.0359,0.036,0.0336,0.0326,0.0294,0.0281,0.0274,0.0207,0.0193,0.0221,0.0099,0.0095,0.0058,0.0076,0.0185,0.0075,0.0074,0.0074,0.0073,0,0.0287,0.0313,0.0364,0.0401,0.041,0.043,0.0454,0.0467,0.0462,0.0449,0.0441,0.0403,0.0387,0.0352,0.0278,0.0293,0.0227,0.0178,0.0172,0.0102,0.0044,0.0039,0.0069,0.0069,0.0069,0.007,0.007,0,0.0313,0.0359,0.0404,0.0416,0.0451,0.0474,0.049,0.0496,0.0507,0.05,0.049,0.0466,0.043,0.0374,0.0259,0.0268,0.016,0.0154,0.005,0.0044,0.0084,0.008,0.0117,0.0117,0.0117,0.0117,0.0118,0,0.0349,0.0383,0.0421,0.0445,0.0497,0.0508,0.0551,0.0557,0.0562,0.0567,0.0534,0.0512,0.0435,0.0355,0.0271,0.0139,0.0163,0.0063,0.0025,0.0115,0.0116,0.008,0.0078,0.0113,0.0114,0.0115,0.0116,0,0.0369,0.0395,0.0445,0.0493,0.0511,0.0544,0.0585,0.0606,0.0604,0.0604,0.0599,0.0536,0.0425,0.0326,0.0202,0.0134,0.0027,-0.0025,0.0051,0.0017,-0.0084,-0.0082,-0.0138,-0.0141,-0.0143,-0.0144,-0.0146,0,0.0384,0.0414,0.0474,0.0501,0.0525,0.0574,0.0605,0.0626,0.0633,0.0605,0.0595,0.0499,0.0439,0.0229,0.0128,-0.004,-0.0057,-0.0116,-0.0059,-0.0073,-0.0105,-0.0099,-0.0094,-0.0149,-0.0149,-0.015,-0.0151,0,0.0405,0.0424,0.046,0.0518,0.0558,0.0602,0.0638,0.0645,0.065,0.0654,0.0581,0.0479,0.0343,0.0205,0.0063,-0.0049,-0.0071,-0.0137,-0.0132,-0.008,-0.0086,-0.0115,-0.0108,-0.0157,-0.0156,-0.0156,-0.0155,0,0.0406,0.0431,0.0471,0.052,0.0572,0.06,0.0628,0.0628,0.0637,0.0606,0.0573,0.0447,0.0383,0.0195,0.0067,-0.0053,-0.0068,-0.0084,-0.0082,-0.0076,-0.002,-0.0017,-0.0094,0,0,0,0,0,0.0395,0.0417,0.0469,0.051,0.0562,0.0586,0.0632,0.065,0.0654,0.0606,0.0592,0.0468,0.0273,0.0192,0.0064,0.0025,-0.0095,-0.0129,-0.0113,-0.0196,-0.0188,-0.0136,0,0,0,0,0,0,0.038,0.0424,0.0456,0.049,0.0513,0.0559,0.0586,0.0593,0.0569,0.0563,0.0465,0.0429,0.0244,0.0338,0.0056,0.0019,0.0012,-0.0212,-0.0215,-0.02,-0.0193,-0.0187,-0.013,0,0,0,0,0]}]]